[[{"header":{"parameterUnit":"m.s-1","parameterCategory":2,"la1":30.2991,"la2":30.254,"lo1":-89.0895,"lo2":-89.0444,"dy":0.0017,"dx":0.0017,"nx":28,"ny":28,"refTime":"2026-02-11T09:00:00:Z","depth":"0","parameterNumber":2,"parameterNumberName":"U-component_of_CURRENTS"},"data":[0,0,0,0,0,0,0,0,0,0,0,0,0,0,0,0,0,0,0,0,0,0,0,0,0,0,0,0,0,0,0,0,0,0,0,0,0,0,0,0,0,0,0,0,0,0,0,0,0,0,0,0,0,0,0,0,0,0,0.3285,0.3285,0,0.3317,0.3317,0.3318,0.3302,0.3301,0.3301,0.33,0.3299,0.3299,0.33,0,0,0,0,0,0,0,0,0,0,0,0,0,0.3246,0.3246,0.3285,0.3285,0.3286,0.3317,0.3317,0.3318,0.3302,0.3301,0.3301,0.33,0.3299,0.3299,0.33,0,0,0,0,0,0,0,0,0,0,0,0,0,0.3266,0.3246,0.3284,0.3284,0.3285,0.3317,0.3317,0.3318,0.3302,0.3301,0.33,0.33,0.3298,0.3299,0.33,0.332,0,0,0.3302,0.3302,0,0,0,0,0,0,0,0,0.3264,0.3267,0.3284,0.3284,0.3285,0.3308,0.3303,0.3318,0.3302,0.3292,0.33,0.3299,0.3301,0.3302,0.3305,0.332,0.332,0.3302,0.3302,0.3303,0.3303,0,0,0,0,0,0,0,0.3263,0.3265,0.3294,0.3285,0.3286,0.3296,0.3297,0.3306,0.3298,0.3293,0.3293,0.3302,0.3301,0.3305,0.3305,0.332,0.3302,0.3302,0.3303,0.3303,0.3401,0.3404,0,0,0,0,0,0,0.3265,0.3264,0.3293,0.3296,0.3276,0.3297,0.3298,0.3298,0.3298,0.3299,0.3302,0.3301,0.3304,0.3304,0.3305,0.3369,0.3303,0.3303,0.3304,0.3399,0.3402,0.3404,0,0,0,0,0,0,0.3263,0.3267,0.3292,0.3284,0.3288,0.3299,0.3299,0.33,0.3309,0.3307,0.3305,0.3312,0.3303,0.3304,0.3333,0.3367,0.3304,0.3304,0.3397,0.34,0.3403,0.3471,0,0,0,0,0,0,0.3262,0.3266,0.3268,0.3283,0.3289,0.3324,0.33,0.3301,0.3317,0.3315,0.3314,0.3313,0.3303,0.3332,0.3333,0.3367,0.3305,0.3394,0.3398,0.3402,0.3466,0.3476,0.3485,0,0,0,0,0,0.326,0.3271,0.3267,0.3271,0.329,0.3325,0.3329,0.3332,0.3318,0.3334,0.3337,0.3313,0.3359,0.3334,0.3335,0.337,0.3392,0.3397,0.3402,0.3461,0.3474,0.3484,0,0,0,0,0,0,0.3266,0.3272,0.3267,0.3281,0.3307,0.3324,0.334,0.334,0.3354,0.3349,0.3338,0.3339,0.3378,0.3369,0.3342,0.3413,0.3373,0.3379,0.3418,0.343,0.3439,0.3496,0.3305,0,0,0,0,0,0.3267,0.3268,0.3288,0.3303,0.3315,0.3328,0.3341,0.3345,0.336,0.3365,0.3366,0.3375,0.3401,0.341,0.3425,0.346,0.3514,0.3486,0.3495,0.3503,0.3553,0.3672,0.3698,0.3421,0.3421,0.342,0,0,0.3275,0.3279,0.3281,0.3303,0.3319,0.3356,0.3333,0.3362,0.3398,0.3364,0.3406,0.3407,0.3419,0.3463,0.348,0.3457,0.3607,0.3509,0.3516,0.3563,0.368,0.3708,0.3732,0.3424,0.3423,0.3423,0,0,0.3309,0.3296,0.3318,0.3338,0.3366,0.3378,0.339,0.3413,0.3427,0.3465,0.346,0.3496,0.3507,0.3545,0.356,0.3636,0.3654,0.3623,0.3716,0.3829,0.3854,0.3876,0.3964,0.3994,0.3625,0.3626,0.3626,0,0.3335,0.3357,0.3336,0.337,0.3403,0.3393,0.3448,0.3462,0.3492,0.3536,0.3486,0.3577,0.3561,0.3668,0.3684,0.3661,0.3722,0.3663,0.3844,0.3868,0.389,0.3975,0.4007,0.3629,0.3629,0.3629,0.3628,0,0.3385,0.3412,0.3433,0.3469,0.3491,0.354,0.3558,0.3591,0.3594,0.3623,0.3714,0.3708,0.3778,0.3761,0.3738,0.3888,0.388,0.3842,0.3817,0.3922,0.4004,0.4036,0.3635,0.3634,0.3632,0.3631,0,0,0.3459,0.3473,0.3487,0.3517,0.3555,0.3583,0.3648,0.3733,0.3811,0.3816,0.3935,0.3955,0.3967,0.399,0.3973,0.405,0.4217,0.4014,0.4018,0.4106,0.4474,0.4375,0.4399,0.4215,0.4221,0.4226,0.4464,0,0.3536,0.3603,0.3597,0.3681,0.3725,0.3739,0.3809,0.3867,0.3918,0.4019,0.4045,0.4132,0.405,0.409,0.4162,0.4208,0.431,0.4157,0.4358,0.4365,0.4267,0.4436,0.4196,0.4381,0.4495,0.45,0.4504,0,0.3608,0.3645,0.3727,0.3796,0.3822,0.3863,0.3989,0.4051,0.4178,0.4224,0.4323,0.4346,0.4467,0.4366,0.455,0.4459,0.4499,0.4518,0.4527,0.4446,0.4327,0.4299,0.4435,0.4304,0.4554,0.455,0.4546,0,0.3662,0.3746,0.381,0.3831,0.3902,0.3953,0.4005,0.412,0.4203,0.4372,0.4459,0.4592,0.4666,0.4752,0.4763,0.4692,0.4955,0.4858,0.4823,0.4814,0.466,0.4627,0.4701,0.5044,0.5044,0.5043,0.5042,0,0.3745,0.3802,0.3833,0.3866,0.3961,0.3994,0.4126,0.4204,0.435,0.4471,0.4567,0.4684,0.4771,0.4893,0.4892,0.4965,0.5073,0.4909,0.49,0.467,0.4637,0.4551,0.4483,0.5052,0.505,0.5048,0.5047,0,0.3775,0.3807,0.3876,0.3952,0.3973,0.4032,0.4148,0.4246,0.4396,0.4562,0.4624,0.4809,0.496,0.5036,0.5186,0.5129,0.5054,0.5199,0.4907,0.4859,0.4644,0.4587,0.4581,0.4443,0.5218,0.5218,0.5217,0,0.3789,0.3822,0.3898,0.3929,0.3956,0.4044,0.4103,0.4242,0.4343,0.4611,0.4686,0.4909,0.5005,0.5197,0.5159,0.5211,0.5061,0.5033,0.4849,0.4669,0.4601,0.4437,0.4308,0.4671,0.4667,0.4663,0.4659,0,0.3805,0.3826,0.387,0.3931,0.3981,0.4052,0.4146,0.4221,0.4402,0.4529,0.4699,0.4806,0.499,0.4924,0.501,0.4993,0.4764,0.495,0.4859,0.429,0.4028,0.3873,0.4468,0.4623,0.4627,0.463,0.4632,0.4633,0.3802,0.3823,0.3868,0.3919,0.3966,0.4017,0.4016,0.4126,0.4227,0.4323,0.4541,0.4568,0.4666,0.4719,0.4703,0.4519,0.4525,0.4351,0.4337,0.4221,0.3961,0.4472,0.4541,0.4544,0.4546,0.4549,0.4551,0,0.3784,0.3802,0.3848,0.3871,0.386,0.3927,0.3995,0.3945,0.3948,0.4071,0.4134,0.4146,0.4114,0.4175,0.4092,0.3927,0.3746,0.3823,0.3538,0.347,0.4021,0.3865,0.3671,0.3671,0.3672,0.3672,0.3672,0.3672,0.3771,0.3784,0.3795,0.3744,0.3738,0.3634,0.3624,0.3575,0.3595,0.3507,0.345,0.3514,0.3735,0.378,0.3614,0.3518,0.3247,0.3087,0.3132,0.3504,0.355,0.3594,0.3433,0.3152,0.3151,0.2394,0.2389,0.2384]},{"header":{"parameterUnit":"m.s-1","parameterCategory":2,"la1":30.2991,"la2":30.254,"lo1":-89.0895,"lo2":-89.0444,"dy":0.0017,"dx":0.0017,"nx":28,"ny":28,"refTime":"2026-02-11T09:00:00:Z","depth":"0","parameterNumber":3,"parameterNumberName":"V-component_of_CURRENTS"},"data":[0,0,0,0,0,0,0,0,0,0,0,0,0,0,0,0,0,0,0,0,0,0,0,0,0,0,0,0,0,0,0,0,0,0,0,0,0,0,0,0,0,0,0,0,0,0,0,0,0,0,0,0,0,0,0,0,0,0,0.0047,0.0046,0,-0.0032,-0.0033,-0.0034,-0.0089,-0.0089,-0.0089,-0.009,-0.0189,-0.0191,-0.0194,0,0,0,0,0,0,0,0,0,0,0,0,0,0.0084,0.0083,0.0047,0.0046,0.0045,-0.0031,-0.0033,-0.0034,-0.0089,-0.0089,-0.0089,-0.009,-0.0188,-0.0191,-0.0194,0,0,0,0,0,0,0,0,0,0,0,0,0,0.0041,0.0083,0.0047,0.001,0.0006,-0.0031,-0.0033,-0.0034,-0.0089,-0.0089,-0.009,-0.009,-0.0187,-0.0191,-0.0194,-0.0209,0,0,-0.0205,-0.0207,0,0,0,0,0,0,0,0,0.0044,0.004,0.0016,0.0013,0.0008,-0.0049,-0.0056,-0.0093,-0.0089,-0.0055,-0.009,-0.009,-0.0143,-0.015,-0.0166,-0.0213,-0.0218,-0.0206,-0.0208,-0.0209,-0.021,0,0,0,0,0,0,0,0.0047,0.0042,0.0014,0.0016,0.0011,-0.0025,-0.0031,-0.0064,-0.0097,-0.0058,-0.0061,-0.0067,-0.0145,-0.0163,-0.0169,-0.0219,-0.0206,-0.0209,-0.0211,-0.0212,-0.0275,-0.0275,0,0,0,0,0,0,0.0064,0.0045,0.0016,0.0012,0.0027,-0.0025,-0.0032,-0.0032,-0.0097,-0.0106,-0.0067,-0.0069,-0.0156,-0.0165,-0.0173,-0.0171,-0.0209,-0.0213,-0.0215,-0.0276,-0.0275,-0.0274,0,0,0,0,0,0,0.0065,0.0063,0.002,0.0028,0.002,-0.0024,-0.0025,-0.0033,-0.0046,-0.0103,-0.0113,-0.0069,-0.0157,-0.0168,-0.0191,-0.0176,-0.0214,-0.0218,-0.0276,-0.0275,-0.0275,-0.0183,0,0,0,0,0,0,0.0067,0.0064,0.0068,0.0029,0.002,0.0013,-0.0024,-0.0034,-0.0048,-0.0052,-0.0108,-0.0119,-0.0158,-0.0186,-0.0195,-0.0182,-0.022,-0.0277,-0.0276,-0.0275,-0.0186,-0.0179,-0.0172,0,0,0,0,0,0.0068,0.0084,0.0069,0.0065,0.0029,0.0014,0.0007,-0.0029,-0.0047,-0.0044,-0.0083,-0.0117,-0.0187,-0.0188,-0.0199,-0.0187,-0.0277,-0.0276,-0.0275,-0.0189,-0.018,-0.0173,0,0,0,0,0,0,0.0092,0.0078,0.0061,0.0068,0.0048,0.0006,0.0004,-0.002,-0.0049,-0.0054,-0.011,-0.0122,-0.0139,-0.0175,-0.0175,-0.0203,-0.0238,-0.0239,-0.0169,-0.0161,-0.0154,-0.0131,-0.0223,0,0,0,0,0,0.0103,0.0116,0.0087,0.0092,0.0086,0.0046,0.0035,0.0014,-0.0017,-0.003,-0.007,-0.0112,-0.0144,-0.0161,-0.0196,-0.0209,-0.0233,-0.0209,-0.0202,-0.0196,-0.0185,-0.0214,-0.0208,-0.0271,-0.0271,-0.0271,0,0,0.0111,0.0107,0.0111,0.0099,0.0078,0.0085,0.0038,0.0032,0.0036,-0.0036,-0.0044,-0.0088,-0.0142,-0.0157,-0.0168,-0.0185,-0.0188,-0.0195,-0.0189,-0.0181,-0.0212,-0.0206,-0.02,-0.027,-0.027,-0.027,0,0,0.0143,0.0133,0.0155,0.0151,0.0136,0.0116,0.0121,0.0088,0.0071,0.0057,0.0007,-0.0024,-0.0075,-0.0108,-0.0132,-0.0108,-0.015,-0.0122,-0.0068,-0.0095,-0.009,-0.0086,-0.009,-0.0087,-0.0118,-0.0118,-0.0118,0,0.0146,0.0176,0.0157,0.0179,0.0184,0.0139,0.0163,0.0142,0.0105,0.0097,0.0069,-0.0002,-0.0049,-0.0067,-0.0062,-0.009,-0.0107,-0.0092,-0.0084,-0.0081,-0.0078,-0.0084,-0.0082,-0.0113,-0.0114,-0.0114,-0.0115,0,0.0198,0.022,0.0234,0.0252,0.0256,0.0268,0.0247,0.0241,0.0213,0.0187,0.0161,0.0093,0.0052,0.003,-0.001,-0.0014,-0.003,-0.007,-0.01,-0.0066,-0.0074,-0.0074,-0.0107,-0.0108,-0.011,-0.0111,0,0,0.0198,0.0258,0.0261,0.0291,0.0298,0.0308,0.0322,0.0318,0.0333,0.0279,0.029,0.0216,0.0174,0.0144,0.0086,0.0057,0.0062,0.0009,0.0005,0.0015,0.0021,0.0002,-0.0,0.0022,0.0022,0.0022,0.0015,0,0.0235,0.0309,0.0324,0.0385,0.0418,0.0402,0.0422,0.0416,0.0397,0.0397,0.0321,0.0302,0.022,0.0202,0.0162,0.0096,0.0065,0.0069,-0.0023,-0.0025,-0.0039,-0.0,0.0005,-0.0002,0.0015,0.0015,0.0015,0,0.0276,0.0324,0.04,0.0465,0.0476,0.0504,0.0536,0.0552,0.0538,0.0523,0.0488,0.0427,0.0385,0.0301,0.0208,0.0216,0.0127,0.0063,0.006,0.0009,-0.0044,-0.004,-0.0002,-0.0189,0.0016,0.0016,0.0016,0,0.0298,0.0374,0.0444,0.0466,0.0526,0.0552,0.0577,0.0586,0.0623,0.0606,0.0637,0.0549,0.0534,0.0411,0.028,0.0244,0.0183,0.0112,0.0007,0.0005,-0.0024,-0.0029,-0.017,0.0029,0.0029,0.0029,0.0029,0,0.0334,0.0385,0.0462,0.0499,0.0579,0.0601,0.0679,0.0684,0.0726,0.081,0.0709,0.0765,0.0559,0.0496,0.0342,0.0206,0.023,0.0033,0.0003,0.0009,0.0008,-0.0186,-0.0302,0.0029,0.0029,0.0029,0.0029,0,0.0349,0.0397,0.048,0.0561,0.0596,0.065,0.0761,0.0826,0.0851,0.0966,0.0971,0.0935,0.0868,0.0667,0.0487,0.0311,0.0052,0.0091,0.0126,0.0098,-0.0199,-0.031,-0.049,-0.0561,-0.0027,-0.0027,-0.0028,0,0.0367,0.0415,0.053,0.0596,0.0638,0.0734,0.0817,0.0874,0.097,0.1103,0.1179,0.1137,0.1166,0.0898,0.056,0.0283,0.0074,0.0066,-0.0026,-0.02,-0.0346,-0.0435,-0.0487,-0.0019,-0.002,-0.002,-0.002,0,0.0404,0.0442,0.0518,0.066,0.0759,0.0887,0.1017,0.1114,0.1228,0.1359,0.1536,0.1573,0.1314,0.1042,0.0612,0.0396,-0.0072,0.005,-0.0145,-0.036,-0.0451,-0.0536,-0.0018,-0.0023,-0.0022,-0.0022,-0.0022,-0.0022,0.0432,0.0492,0.0609,0.0746,0.0875,0.1054,0.1179,0.135,0.1556,0.1786,0.1805,0.1917,0.1459,0.089,0.0561,-0.0077,-0.009,-0.0286,-0.0403,-0.0473,-0.0562,-0.0036,-0.0075,-0.0075,-0.0076,-0.0076,-0.0076,0,0.0489,0.0578,0.0701,0.088,0.1048,0.11,0.1336,0.1491,0.1774,0.1974,0.2142,0.1986,0.1444,0.0849,-0.001,-0.0451,-0.0613,-0.0693,-0.0829,-0.0858,-0.0398,-0.0419,-0.0516,-0.0515,-0.0515,-0.0515,-0.0515,-0.0515,0.0527,0.0659,0.0734,0.1017,0.1151,0.1382,0.1528,0.1762,0.1947,0.2214,0.2284,0.229,0.1804,0.0329,-0.066,-0.0878,-0.1178,-0.1265,-0.1393,-0.1105,-0.1076,-0.1048,-0.1096,-0.1332,-0.1334,-0.1789,-0.1794,-0.1798]}],[{"header":{"parameterUnit":"m.s-1","parameterCategory":2,"la1":30.2991,"la2":30.254,"lo1":-89.0895,"lo2":-89.0444,"dy":0.0017,"dx":0.0017,"nx":28,"ny":28,"refTime":"2026-02-11T09:00:00:Z","depth":"2","parameterNumber":2,"parameterNumberName":"U-component_of_CURRENTS"},"data":[0,0,0,0,0,0,0,0,0,0,0,0,0,0,0,0,0,0,0,0,0,0,0,0,0,0,0,0,0,0,0,0,0,0,0,0,0,0,0,0,0,0,0,0,0,0,0,0,0,0,0,0,0,0,0,0,0,0,0.2851,0.2851,0,0.2882,0.2883,0.2883,0.2884,0.2883,0.2883,0.2883,0.2895,0.2896,0.2896,0,0,0,0,0,0,0,0,0,0,0,0,0,0.2809,0.281,0.2851,0.2851,0.2852,0.2882,0.2883,0.2883,0.2884,0.2883,0.2883,0.2883,0.2895,0.2896,0.2897,0,0,0,0,0,0,0,0,0,0,0,0,0,0.283,0.281,0.285,0.2858,0.2859,0.2882,0.2883,0.2883,0.2884,0.2883,0.2883,0.2883,0.2895,0.2896,0.2897,0.2906,0,0,0.2899,0.2899,0,0,0,0,0,0,0,0,0.2829,0.2832,0.2856,0.2857,0.2859,0.2881,0.2873,0.2891,0.2884,0.2872,0.2883,0.2883,0.2891,0.2892,0.2895,0.2907,0.2908,0.2899,0.2899,0.29,0.29,0,0,0,0,0,0,0,0.2828,0.283,0.2861,0.2857,0.2858,0.2866,0.2868,0.2876,0.288,0.2873,0.2874,0.2881,0.2891,0.2894,0.2895,0.2908,0.2899,0.29,0.29,0.29,0.2992,0.2994,0,0,0,0,0,0,0.2828,0.2829,0.286,0.2862,0.2846,0.2867,0.2869,0.2872,0.288,0.2882,0.2881,0.2881,0.2893,0.2895,0.2896,0.296,0.29,0.29,0.2901,0.299,0.2992,0.2995,0,0,0,0,0,0,0.2827,0.283,0.2859,0.2848,0.2853,0.2868,0.2871,0.2873,0.289,0.2887,0.2888,0.2897,0.2893,0.2895,0.2925,0.2958,0.2901,0.2901,0.2988,0.2991,0.2993,0.3054,0,0,0,0,0,0,0.2825,0.2829,0.2835,0.2848,0.2853,0.2888,0.2872,0.2874,0.2895,0.2895,0.2902,0.2902,0.2893,0.2924,0.2926,0.2958,0.2902,0.2985,0.2989,0.2993,0.305,0.3059,0.3067,0,0,0,0,0,0.2824,0.2836,0.2835,0.2839,0.2859,0.289,0.2894,0.2901,0.2896,0.2913,0.292,0.2902,0.2949,0.2926,0.2927,0.2961,0.2983,0.2988,0.2992,0.3046,0.3057,0.3067,0,0,0,0,0,0,0.2826,0.2838,0.2837,0.2853,0.2876,0.2891,0.2908,0.2912,0.2931,0.2931,0.2923,0.2925,0.2967,0.2958,0.2933,0.3001,0.2965,0.297,0.3005,0.3016,0.3024,0.3048,0.2903,0,0,0,0,0,0.2828,0.2838,0.2855,0.2872,0.2884,0.2897,0.2911,0.2919,0.2936,0.2943,0.2949,0.2961,0.2985,0.2995,0.301,0.3042,0.3063,0.3068,0.3077,0.3084,0.3106,0.3171,0.3188,0.3009,0.3009,0.3009,0,0,0.2835,0.2843,0.285,0.2873,0.2888,0.2918,0.2905,0.2935,0.2964,0.2942,0.2983,0.2991,0.3002,0.3043,0.306,0.304,0.3146,0.3089,0.3095,0.3114,0.3178,0.3195,0.321,0.3012,0.3012,0.3011,0,0,0.2858,0.2862,0.2879,0.2901,0.2929,0.2942,0.2955,0.2979,0.2996,0.3033,0.3033,0.3068,0.3088,0.3113,0.3125,0.3193,0.3191,0.3193,0.3252,0.3315,0.333,0.3344,0.3391,0.3409,0.3194,0.3194,0.3194,0,0.2869,0.2886,0.2893,0.2921,0.2945,0.2956,0.2991,0.3014,0.3046,0.3071,0.3056,0.3126,0.3128,0.3198,0.3222,0.3213,0.3244,0.3207,0.3326,0.334,0.3353,0.3399,0.3417,0.3198,0.3197,0.3197,0.3197,0,0.2901,0.2923,0.294,0.2974,0.3004,0.3035,0.3069,0.3101,0.3117,0.3139,0.3208,0.3224,0.3267,0.3275,0.3268,0.3366,0.3356,0.333,0.3298,0.3375,0.3418,0.3436,0.3203,0.3202,0.3201,0.32,0,0,0.29,0.2952,0.2957,0.2978,0.3032,0.3056,0.312,0.3176,0.3224,0.3256,0.3328,0.3371,0.3382,0.34,0.3403,0.3458,0.3568,0.3439,0.3441,0.3484,0.3708,0.3646,0.3659,0.3564,0.3568,0.3571,0.37,0,0.2923,0.2973,0.3,0.3056,0.3085,0.3126,0.3186,0.3241,0.3288,0.3359,0.3397,0.3466,0.3428,0.3467,0.3514,0.3566,0.362,0.3535,0.3631,0.3634,0.3567,0.368,0.337,0.3456,0.3718,0.3721,0.3723,0,0.2939,0.2968,0.3024,0.3093,0.3112,0.3155,0.3249,0.3302,0.3406,0.3459,0.3532,0.3562,0.3662,0.3614,0.3739,0.3688,0.371,0.3736,0.3741,0.3678,0.3606,0.3423,0.3479,0.3753,0.3751,0.3748,0.3746,0,0.2912,0.2984,0.3023,0.3046,0.3129,0.3173,0.3225,0.3329,0.3402,0.3534,0.3603,0.3703,0.3776,0.3829,0.3866,0.3823,0.3997,0.3934,0.3898,0.3892,0.3647,0.3614,0.4029,0.4029,0.4029,0.4028,0.4028,0,0.2912,0.2938,0.3014,0.3028,0.3097,0.3162,0.3257,0.3334,0.3472,0.3559,0.3645,0.3739,0.3839,0.3926,0.3934,0.3985,0.405,0.3948,0.3939,0.3658,0.3627,0.389,0.3872,0.4033,0.4032,0.4031,0.403,0,0.2865,0.2915,0.2956,0.3043,0.3083,0.3125,0.3275,0.3336,0.3478,0.3602,0.3657,0.3823,0.394,0.4007,0.4126,0.4078,0.4129,0.4119,0.3783,0.3733,0.3962,0.3946,0.4108,0.4107,0.4106,0.4106,0.4105,0,0.2842,0.2857,0.2949,0.2981,0.302,0.311,0.3171,0.333,0.3397,0.3628,0.3667,0.3858,0.3932,0.4089,0.4079,0.4113,0.4156,0.3833,0.3692,0.4004,0.3979,0.3964,0.3949,0.3386,0.338,0.3375,0.3371,0,0.2792,0.2825,0.2863,0.2926,0.2985,0.3056,0.3148,0.3211,0.3378,0.3487,0.3622,0.372,0.3882,0.3797,0.3871,0.3835,0.3804,0.3731,0.4168,0.3417,0.3335,0.3307,0.3314,0.3325,0.3329,0.3333,0.3335,0.3337,0.2757,0.2763,0.2814,0.2872,0.2932,0.2963,0.296,0.3056,0.3147,0.3244,0.3444,0.3476,0.3558,0.3516,0.3428,0.3366,0.3617,0.3436,0.3447,0.3465,0.3361,0.3283,0.3243,0.3247,0.325,0.3254,0.3256,0,0.2678,0.272,0.2757,0.279,0.2789,0.2874,0.2908,0.2859,0.2867,0.3019,0.3109,0.2928,0.2907,0.2975,0.2815,0.2835,0.2755,0.2715,0.2568,0.2619,0.2663,0.2511,0.2172,0.2168,0.2164,0.2161,0,0,0.2642,0.2636,0.2648,0.2641,0.2668,0.2586,0.2567,0.2524,0.2557,0.2543,0.2554,0.28,0.2912,0.2502,0.2466,0.2283,0.2421,0.2198,0.308,0.296,0.2999,0.3109,0.2939,0,0,0,0,0]},{"header":{"parameterUnit":"m.s-1","parameterCategory":2,"la1":30.2991,"la2":30.254,"lo1":-89.0895,"lo2":-89.0444,"dy":0.0017,"dx":0.0017,"nx":28,"ny":28,"refTime":"2026-02-11T09:00:00:Z","depth":"2","parameterNumber":3,"parameterNumberName":"V-component_of_CURRENTS"},"data":[0,0,0,0,0,0,0,0,0,0,0,0,0,0,0,0,0,0,0,0,0,0,0,0,0,0,0,0,0,0,0,0,0,0,0,0,0,0,0,0,0,0,0,0,0,0,0,0,0,0,0,0,0,0,0,0,0,0,0.0199,0.0199,0,0.0133,0.0132,0.0131,0.0085,0.0085,0.0084,0.0084,0.0002,0.0,-0.0002,0,0,0,0,0,0,0,0,0,0,0,0,0,0.023,0.023,0.02,0.0199,0.0198,0.0133,0.0132,0.0131,0.0085,0.0085,0.0084,0.0084,0.0003,0.0001,-0.0002,0,0,0,0,0,0,0,0,0,0,0,0,0,0.0195,0.023,0.02,0.0168,0.0165,0.0133,0.0132,0.0131,0.0085,0.0085,0.0084,0.0084,0.0004,0.0001,-0.0002,-0.0013,0,0,-0.0011,-0.0012,0,0,0,0,0,0,0,0,0.0197,0.0194,0.0174,0.017,0.0166,0.0118,0.0113,0.0082,0.0085,0.0114,0.0084,0.0084,0.0041,0.0035,0.0021,-0.0017,-0.002,-0.0011,-0.0013,-0.0014,-0.0015,0,0,0,0,0,0,0,0.0199,0.0196,0.0172,0.0173,0.0169,0.0138,0.0133,0.0107,0.0079,0.0111,0.0108,0.0103,0.0038,0.0024,0.0019,-0.0021,-0.0011,-0.0014,-0.0016,-0.0017,-0.007,-0.007,0,0,0,0,0,0,0.0214,0.0199,0.0174,0.017,0.0182,0.0138,0.0133,0.0133,0.0079,0.0071,0.0103,0.0101,0.003,0.0023,0.0016,0.0017,-0.0014,-0.0017,-0.0019,-0.0071,-0.007,-0.007,0,0,0,0,0,0,0.0215,0.0212,0.0177,0.0183,0.0177,0.0139,0.0139,0.0132,0.0121,0.0074,0.0065,0.0101,0.0029,0.002,0.0001,0.0013,-0.0018,-0.0021,-0.0071,-0.0071,-0.007,0.0007,0,0,0,0,0,0,0.0216,0.0213,0.0217,0.0185,0.0177,0.017,0.0139,0.0131,0.0119,0.0115,0.0069,0.006,0.0028,0.0005,-0.0002,0.0008,-0.0023,-0.0071,-0.0071,-0.007,0.0004,0.001,0.0016,0,0,0,0,0,0.0217,0.023,0.0218,0.0215,0.0184,0.0171,0.0165,0.0135,0.0119,0.0122,0.0089,0.0062,0.0004,0.0003,-0.0006,0.0004,-0.0072,-0.0071,-0.007,0.0002,0.0009,0.0016,0,0,0,0,0,0,0.0238,0.0226,0.0212,0.0217,0.02,0.0164,0.0162,0.0142,0.0117,0.0114,0.0067,0.0057,0.0043,0.0013,0.0014,-0.0011,-0.0039,-0.004,0.0019,0.0025,0.0031,0.0056,-0.0026,0,0,0,0,0,0.0248,0.0258,0.0233,0.0237,0.0232,0.0198,0.0188,0.0171,0.0144,0.0133,0.01,0.0065,0.0039,0.0025,-0.0005,-0.0015,-0.0047,-0.0017,-0.0011,-0.0006,0.0008,-0.0029,-0.0026,-0.0067,-0.0067,-0.0067,0,0,0.0254,0.025,0.0253,0.0243,0.0225,0.0232,0.0191,0.0185,0.019,0.0128,0.0124,0.0084,0.004,0.0027,0.0018,0.0004,-0.0012,-0.0005,0.0,0.0011,-0.0028,-0.0024,-0.002,-0.0067,-0.0067,-0.0067,0,0,0.0283,0.0273,0.0293,0.0288,0.0275,0.0258,0.0262,0.0233,0.0219,0.0207,0.0165,0.0138,0.0095,0.0068,0.0048,0.0068,0.0019,0.0054,0.0103,0.0067,0.0071,0.0073,0.0037,0.0035,0.0057,0.0057,0.0057,0,0.0289,0.0317,0.0295,0.0315,0.0322,0.0277,0.0303,0.0282,0.025,0.0248,0.0217,0.0158,0.0117,0.0106,0.0108,0.0082,0.0052,0.0084,0.0076,0.0078,0.0079,0.0041,0.0039,0.0061,0.0061,0.006,0.006,0,0.0338,0.0358,0.0371,0.0387,0.0389,0.0404,0.038,0.0374,0.0348,0.0326,0.0305,0.0242,0.0211,0.0186,0.0152,0.0144,0.0116,0.0088,0.0063,0.0089,0.0046,0.0042,0.0066,0.0065,0.0064,0.0063,0,0,0.0358,0.0399,0.0403,0.0436,0.0435,0.0447,0.0454,0.0456,0.0474,0.0417,0.0431,0.0363,0.0325,0.03,0.0246,0.0207,0.0182,0.0158,0.0154,0.0131,0.0102,0.007,0.0062,0.0152,0.0152,0.0152,0.0068,0,0.0403,0.0473,0.0474,0.0537,0.0574,0.055,0.0565,0.0558,0.054,0.0538,0.0461,0.0448,0.0369,0.0356,0.0306,0.022,0.0176,0.0208,0.0074,0.007,0.0046,0.0059,0.0089,0.0016,0.0063,0.0063,0.0062,0,0.0456,0.0501,0.0575,0.0636,0.0647,0.0669,0.0704,0.0715,0.0692,0.0679,0.0642,0.0579,0.0519,0.0445,0.0308,0.0331,0.0228,0.0148,0.0142,0.0087,0.0032,-0.0002,0.0007,0.0055,0.0056,0.0056,0.0057,0,0.0506,0.0575,0.0645,0.0664,0.0712,0.0737,0.0757,0.0757,0.0798,0.0773,0.0789,0.0694,0.0661,0.0518,0.0343,0.0328,0.0186,0.0143,0.0014,0.001,-0.0002,-0.0007,0.0045,0.0045,0.0045,0.0045,0.0045,0,0.0568,0.0624,0.0676,0.0715,0.0801,0.0804,0.0891,0.0888,0.0918,0.0982,0.0869,0.0887,0.0678,0.0565,0.0388,0.0196,0.0217,0.003,-0.001,0.0024,0.0023,0.0026,0.0025,0.0042,0.0043,0.0043,0.0044,0,0.062,0.0649,0.074,0.0805,0.083,0.0893,0.0996,0.1066,0.1061,0.114,0.1137,0.1046,0.0893,0.0667,0.0441,0.0272,0.0078,-0.0,0.0053,0.002,-0.0088,-0.0084,-0.0148,-0.0149,-0.0151,-0.0152,-0.0153,0,0.0658,0.0706,0.081,0.0875,0.0911,0.101,0.1089,0.1135,0.1222,0.1243,0.129,0.1163,0.1095,0.0742,0.0422,0.0107,0.0066,-0.0073,-0.0103,-0.0073,-0.0106,-0.01,-0.0094,-0.0094,-0.0094,-0.0095,-0.0095,0,0.0731,0.0761,0.0838,0.097,0.1068,0.1196,0.1306,0.1398,0.1456,0.1499,0.1528,0.1467,0.1133,0.0817,0.0382,0.0174,-0.0024,-0.0092,-0.0068,-0.0048,-0.0029,-0.0059,-0.0054,-0.0098,-0.0098,-0.0098,-0.0097,-0.0097,0.0786,0.0853,0.0951,0.1078,0.12,0.1353,0.1462,0.1577,0.1701,0.1758,0.1708,0.161,0.1255,0.0696,0.0325,-0.006,-0.0043,-0.018,-0.0176,-0.0172,-0.0149,-0.0134,-0.0218,-0.0218,-0.0219,-0.0219,-0.0219,0,0.0864,0.0936,0.1055,0.1208,0.1346,0.14,0.1589,0.1684,0.1816,0.1864,0.1864,0.1519,0.1162,0.075,0.0176,-0.0165,-0.0179,-0.0269,-0.0214,-0.0208,-0.0203,-0.018,-0.0259,-0.026,-0.0261,-0.0262,0,0,0.0907,0.1027,0.1084,0.1301,0.141,0.1585,0.1693,0.1812,0.1882,0.1911,0.1857,0.1771,0.1276,0.0854,0.0389,0.0059,0.0007,0.0,0.007,0.0197,0.0205,-0.0114,-0.0067,0,0,0,0,0]}],[{"header":{"parameterUnit":"m.s-1","parameterCategory":2,"la1":30.2991,"la2":30.254,"lo1":-89.0895,"lo2":-89.0444,"dy":0.0017,"dx":0.0017,"nx":28,"ny":28,"refTime":"2026-02-11T09:00:00:Z","depth":"4","parameterNumber":2,"parameterNumberName":"U-component_of_CURRENTS"},"data":[0,0,0,0,0,0,0,0,0,0,0,0,0,0,0,0,0,0,0,0,0,0,0,0,0,0,0,0,0,0,0,0,0,0,0,0,0,0,0,0,0,0,0,0,0,0,0,0,0,0,0,0,0,0,0,0,0,0,0.1889,0.189,0,0.1958,0.1959,0.1959,0.2018,0.2019,0.202,0.2021,0.2102,0.2104,0.2105,0,0,0,0,0,0,0,0,0,0,0,0,0,0.1806,0.1807,0.1889,0.189,0.1891,0.1958,0.1959,0.1959,0.2018,0.2019,0.202,0.2021,0.2102,0.2104,0.2105,0,0,0,0,0,0,0,0,0,0,0,0,0,0.1853,0.1808,0.1889,0.193,0.1935,0.1958,0.1959,0.196,0.2018,0.2019,0.202,0.2022,0.2101,0.2103,0.2106,0.2093,0,0,0.2112,0.2113,0,0,0,0,0,0,0,0,0.1851,0.1856,0.1923,0.1928,0.1933,0.1983,0.196,0.2006,0.2018,0.1984,0.2021,0.2022,0.2064,0.2069,0.2076,0.2097,0.21,0.2112,0.2113,0.2114,0.2115,0,0,0,0,0,0,0,0.1847,0.1854,0.1914,0.1924,0.193,0.1945,0.1952,0.1968,0.2015,0.1987,0.1992,0.2003,0.2067,0.2074,0.2079,0.2101,0.2112,0.2114,0.2115,0.2116,0.2246,0.2248,0,0,0,0,0,0,0.1842,0.185,0.1912,0.1917,0.1896,0.1945,0.1954,0.1964,0.2014,0.2024,0.2001,0.2005,0.207,0.2076,0.2082,0.2184,0.2114,0.2116,0.2117,0.2244,0.2246,0.2249,0,0,0,0,0,0,0.184,0.1847,0.191,0.1887,0.1896,0.1945,0.1956,0.1964,0.2015,0.2026,0.2035,0.2048,0.2071,0.2079,0.2139,0.2183,0.2117,0.2119,0.2241,0.2244,0.2247,0.2316,0,0,0,0,0,0,0.1837,0.1845,0.187,0.1886,0.1897,0.1952,0.1955,0.1965,0.2017,0.2024,0.2068,0.2074,0.2073,0.2136,0.2141,0.2185,0.2121,0.2238,0.2243,0.2246,0.2311,0.2321,0.233,0,0,0,0,0,0.1834,0.1858,0.187,0.1879,0.1923,0.1953,0.1961,0.1998,0.2019,0.2047,0.2083,0.2075,0.2166,0.214,0.2145,0.2191,0.2236,0.2241,0.2246,0.2306,0.2319,0.2329,0,0,0,0,0,0,0.1838,0.1866,0.1881,0.1914,0.1945,0.1965,0.2001,0.2021,0.207,0.2091,0.2099,0.2109,0.2179,0.2176,0.2147,0.2242,0.2201,0.2208,0.2245,0.2257,0.2266,0.2267,0.2122,0,0,0,0,0,0.1847,0.1877,0.19,0.1934,0.1952,0.1983,0.2009,0.2034,0.2069,0.2094,0.2125,0.2161,0.2195,0.2221,0.2247,0.2295,0.23,0.2331,0.234,0.2348,0.2354,0.2397,0.2411,0.2265,0.2265,0.2265,0,0,0.186,0.1881,0.19,0.1938,0.1967,0.1999,0.2003,0.2055,0.2094,0.2094,0.2172,0.2198,0.2216,0.2275,0.2306,0.2285,0.2396,0.2354,0.2361,0.2363,0.2404,0.2418,0.243,0.2268,0.2268,0.2267,0,0,0.1885,0.1919,0.1946,0.1975,0.2025,0.2043,0.2067,0.2111,0.2149,0.2212,0.2228,0.2284,0.2334,0.2357,0.2372,0.245,0.2445,0.2467,0.2516,0.2559,0.257,0.2581,0.2616,0.2629,0.2471,0.2471,0.2471,0,0.1902,0.1933,0.1962,0.1994,0.2025,0.2066,0.2102,0.2142,0.2206,0.2238,0.2252,0.2351,0.237,0.2435,0.2468,0.2471,0.2493,0.2468,0.257,0.258,0.259,0.2623,0.2637,0.2475,0.2475,0.2474,0.2474,0,0.193,0.1972,0.1995,0.2046,0.2085,0.2127,0.2176,0.2231,0.2282,0.2315,0.2407,0.2443,0.2499,0.252,0.252,0.2604,0.2598,0.2575,0.2536,0.2609,0.2639,0.2652,0.2481,0.2479,0.2478,0.2477,0,0,0.1914,0.1996,0.2009,0.2039,0.2117,0.2143,0.2222,0.2286,0.2345,0.2417,0.2489,0.256,0.2591,0.2611,0.263,0.2672,0.2764,0.2663,0.2663,0.269,0.2866,0.2692,0.2689,0.2764,0.2766,0.2768,0.2863,0,0.1928,0.1985,0.2031,0.2099,0.2129,0.2197,0.2263,0.2334,0.2406,0.2489,0.2545,0.2628,0.2622,0.2673,0.2714,0.2757,0.28,0.274,0.2798,0.28,0.263,0.2698,0.2776,0.2873,0.2875,0.2878,0.2879,0,0.1924,0.1966,0.2029,0.2116,0.2139,0.2196,0.2304,0.2371,0.2489,0.2553,0.2642,0.2692,0.2788,0.2767,0.2874,0.2841,0.2864,0.2884,0.2888,0.2707,0.2649,0.2784,0.2902,0.29,0.2898,0.2897,0.2895,0,0.1866,0.1959,0.2009,0.2041,0.2149,0.2204,0.2274,0.2393,0.2463,0.2611,0.2682,0.2784,0.2863,0.291,0.2962,0.2936,0.3061,0.302,0.2883,0.2872,0.2969,0.2956,0.3087,0.3087,0.3086,0.3086,0.3086,0,0.1832,0.1876,0.1993,0.2019,0.2091,0.2185,0.2285,0.2373,0.2512,0.2593,0.2719,0.2795,0.2907,0.2983,0.3002,0.2984,0.3096,0.2903,0.2885,0.2997,0.2987,0.2978,0.2964,0.309,0.3089,0.3088,0.3087,0,0.175,0.183,0.1891,0.2017,0.2064,0.2119,0.2279,0.2343,0.2501,0.2616,0.2673,0.2839,0.2939,0.302,0.3112,0.3022,0.3031,0.2995,0.3132,0.3119,0.2804,0.2793,0.284,0.2835,0.2831,0.2827,0.2824,0,0.1705,0.1734,0.1872,0.1911,0.1976,0.208,0.2149,0.2319,0.239,0.2614,0.2648,0.2817,0.2904,0.2899,0.2995,0.3016,0.2978,0.2954,0.285,0.2801,0.2781,0.2777,0.2772,0.2816,0.2815,0.2814,0.2813,0,0.1621,0.1692,0.1744,0.1826,0.1904,0.1977,0.2092,0.2129,0.2321,0.2486,0.2568,0.2625,0.2732,0.2792,0.2836,0.2841,0.2949,0.2906,0.2914,0.2816,0.2772,0.2756,0.2756,0.2797,0.28,0.2801,0.2802,0,0.1562,0.1577,0.1661,0.1717,0.1809,0.1841,0.1918,0.2004,0.2098,0.2339,0.2363,0.2546,0.2708,0.2705,0.2746,0.2739,0.2686,0.2575,0.2599,0.2617,0.2497,0.2406,0.2312,0,0,0,0,0,0.1488,0.1495,0.1542,0.1593,0.1677,0.1733,0.1863,0.1947,0.2134,0.2131,0.224,0.2331,0.24,0.2499,0.2447,0.2641,0.2692,0.2566,0.2574,0.271,0.2729,0.2606,0,0,0,0,0,0,0.1437,0.1479,0.1496,0.1481,0.1497,0.1573,0.1651,0.1774,0.1785,0.1984,0.204,0.2187,0.2297,0.2412,0.2405,0.2431,0.2385,0.2682,0.2676,0.27,0.2717,0.2731,0.2611,0,0,0,0,0]},{"header":{"parameterUnit":"m.s-1","parameterCategory":2,"la1":30.2991,"la2":30.254,"lo1":-89.0895,"lo2":-89.0444,"dy":0.0017,"dx":0.0017,"nx":28,"ny":28,"refTime":"2026-02-11T09:00:00:Z","depth":"4","parameterNumber":3,"parameterNumberName":"V-component_of_CURRENTS"},"data":[0,0,0,0,0,0,0,0,0,0,0,0,0,0,0,0,0,0,0,0,0,0,0,0,0,0,0,0,0,0,0,0,0,0,0,0,0,0,0,0,0,0,0,0,0,0,0,0,0,0,0,0,0,0,0,0,0,0,0.0175,0.0175,0,0.0134,0.0133,0.0133,0.0106,0.0106,0.0106,0.0105,0.0049,0.0048,0.0047,0,0,0,0,0,0,0,0,0,0,0,0,0,0.0192,0.0192,0.0175,0.0174,0.0174,0.0134,0.0133,0.0132,0.0106,0.0106,0.0106,0.0105,0.005,0.0048,0.0046,0,0,0,0,0,0,0,0,0,0,0,0,0,0.017,0.0192,0.0175,0.0156,0.0154,0.0134,0.0133,0.0132,0.0106,0.0106,0.0105,0.0105,0.005,0.0048,0.0046,0.0036,0,0,0.004,0.0039,0,0,0,0,0,0,0,0,0.0172,0.017,0.016,0.0158,0.0155,0.0125,0.0118,0.01,0.0106,0.0123,0.0105,0.0105,0.0074,0.007,0.0062,0.0033,0.0031,0.004,0.0038,0.0037,0.0037,0,0,0,0,0,0,0,0.0173,0.0171,0.0158,0.0159,0.0157,0.0137,0.0134,0.0115,0.0099,0.0122,0.012,0.0117,0.0073,0.0064,0.006,0.003,0.004,0.0038,0.0036,0.0036,-0.0006,-0.0005,0,0,0,0,0,0,0.0182,0.0173,0.0159,0.0157,0.0164,0.0137,0.0134,0.0135,0.01,0.0094,0.0117,0.0116,0.0067,0.0063,0.0058,0.0059,0.0037,0.0035,0.0034,-0.0006,-0.0006,-0.0005,0,0,0,0,0,0,0.0183,0.0181,0.0161,0.0164,0.016,0.0137,0.0138,0.0134,0.0129,0.0096,0.0091,0.0118,0.0067,0.0061,0.0048,0.0056,0.0034,0.0033,-0.0006,-0.0006,-0.0005,0.0052,0,0,0,0,0,0,0.0183,0.0182,0.0187,0.0165,0.016,0.0157,0.0138,0.0133,0.0128,0.0126,0.0095,0.0089,0.0066,0.0052,0.0046,0.0053,0.0031,-0.0006,-0.0006,-0.0006,0.005,0.0054,0.0058,0,0,0,0,0,0.0184,0.0194,0.0187,0.0186,0.0167,0.0158,0.0154,0.0136,0.0128,0.0131,0.011,0.009,0.005,0.0051,0.0044,0.005,-0.0006,-0.0006,-0.0006,0.0048,0.0053,0.0058,0,0,0,0,0,0,0.0199,0.0191,0.0184,0.0189,0.0178,0.0154,0.0155,0.0142,0.0127,0.0127,0.0095,0.0088,0.0079,0.0056,0.0058,0.0038,0.0017,0.0017,0.006,0.0065,0.0069,0.0088,0.0029,0,0,0,0,0,0.0206,0.0215,0.0198,0.0203,0.02,0.0179,0.0173,0.0163,0.0146,0.0139,0.0117,0.0093,0.0074,0.0064,0.0043,0.0035,0.0005,0.0033,0.0037,0.004,0.005,0.0012,0.0013,-0.0004,-0.0004,-0.0004,0,0,0.0212,0.021,0.0213,0.0207,0.0197,0.0203,0.0175,0.0173,0.0178,0.0136,0.0136,0.0108,0.0075,0.0065,0.0059,0.0049,0.0028,0.0041,0.0044,0.0052,0.0012,0.0014,0.0015,-0.0004,-0.0004,-0.0004,0,0,0.0232,0.0228,0.0243,0.0241,0.0234,0.0223,0.0227,0.0208,0.0201,0.0195,0.0165,0.0145,0.0116,0.0094,0.0079,0.0092,0.005,0.0082,0.0118,0.008,0.0082,0.0082,0.0041,0.0037,0.0084,0.0084,0.0084,0,0.0238,0.026,0.0244,0.0259,0.0267,0.0238,0.0258,0.0244,0.0224,0.0224,0.0204,0.0161,0.0131,0.0119,0.0122,0.0102,0.0072,0.0105,0.0086,0.0087,0.0086,0.0043,0.0039,0.0087,0.0086,0.0086,0.0086,0,0.0272,0.029,0.03,0.0314,0.0317,0.033,0.0315,0.0312,0.0297,0.0283,0.0268,0.022,0.0198,0.0178,0.0154,0.0141,0.0116,0.0097,0.0078,0.0092,0.0045,0.004,0.0091,0.009,0.0089,0.0088,0,0,0.0286,0.0319,0.0324,0.0351,0.0353,0.0364,0.0371,0.0374,0.0389,0.0349,0.0358,0.0309,0.0281,0.0262,0.0221,0.0183,0.0148,0.0145,0.0141,0.011,0.0061,0.0041,0.0033,0.0125,0.0124,0.0124,0.0027,0,0.032,0.0372,0.0375,0.0427,0.0456,0.0442,0.0456,0.0452,0.044,0.0437,0.0378,0.0369,0.0313,0.0305,0.0258,0.018,0.0137,0.0177,0.0047,0.0043,0.0029,0.0027,0.0123,0.0022,0.0021,0.002,0.0019,0,0.0356,0.0391,0.0451,0.0503,0.0513,0.0535,0.0566,0.0576,0.0556,0.0546,0.0516,0.0468,0.0412,0.0361,0.0231,0.0258,0.017,0.0099,0.0093,0.0055,0.0014,0.0004,0.0008,0.0009,0.001,0.0011,0.0011,0,0.039,0.0447,0.0505,0.0521,0.0564,0.059,0.0611,0.0612,0.064,0.062,0.0629,0.0546,0.0512,0.0391,0.0241,0.0238,0.0087,0.0063,-0.004,-0.0043,-0.0022,-0.0022,-0.0027,-0.0027,-0.0027,-0.0026,-0.0026,0,0.0432,0.0479,0.053,0.0562,0.0636,0.0644,0.0717,0.0717,0.0734,0.0772,0.0693,0.0687,0.0518,0.0408,0.0265,0.0095,0.0103,-0.0032,-0.0067,0.0003,0.0007,-0.0027,-0.0025,-0.003,-0.0029,-0.0029,-0.0028,0,0.0464,0.0493,0.0568,0.063,0.0658,0.0712,0.08,0.0849,0.0847,0.089,0.0887,0.0793,0.0645,0.0463,0.0259,0.0136,-0.003,-0.0093,-0.0005,-0.0034,-0.0143,-0.0138,-0.0214,-0.0215,-0.0216,-0.0217,-0.0218,0,0.0486,0.0527,0.0623,0.0676,0.0712,0.08,0.0865,0.0905,0.0957,0.0951,0.0967,0.0844,0.0754,0.0458,0.0256,-0.0022,-0.0065,-0.0152,-0.0149,-0.0135,-0.0161,-0.0154,-0.0147,-0.022,-0.022,-0.0221,-0.0221,0,0.0529,0.0561,0.0621,0.0732,0.0817,0.0921,0.1008,0.1052,0.1087,0.1091,0.1035,0.0876,0.0704,0.0463,0.0244,0.0044,-0.0096,-0.0166,-0.0165,-0.0163,-0.0143,-0.0167,-0.0159,-0.0225,-0.0225,-0.0224,-0.0224,0,0.0559,0.0606,0.0684,0.0783,0.0894,0.0994,0.1047,0.1098,0.1143,0.1121,0.1099,0.0908,0.0799,0.0496,0.0296,0.0095,0.0039,-0.0027,-0.0034,-0.0032,0.0043,0.0096,0.0061,0,0,0,0,0,0.0586,0.0637,0.0729,0.0834,0.0945,0.1011,0.1119,0.1159,0.1189,0.1162,0.1132,0.0969,0.0664,0.0534,0.033,0.0258,-0.0004,0.0011,-0.0085,-0.0249,-0.0244,-0.0189,0,0,0,0,0,0,0.0601,0.0684,0.0726,0.0857,0.0935,0.1063,0.1136,0.1162,0.1145,0.1136,0.0983,0.0906,0.0615,0.0777,0.0321,0.0259,0.0168,-0.0129,-0.0133,-0.0251,-0.0247,-0.0243,-0.0185,0,0,0,0,0]}]]